This is the latest recevied weather packets stored in our database for station/object PA0HHN. If no packets are shown the sender has not sent any weather packets the latest 10 day(s).
| Time | Temp. | Humidity | Pressure | Rain* | Wind** | Luminosity | Snow |
|---|---|---|---|---|---|---|---|
| 1778171401 | 15° C | 62% | 1010.7 hPa | - | - | - | - |
| 1778169601 | 15° C | 60% | 1010.4 hPa | - | - | - | - |
| 1778168701 | 15° C | 62% | 1010.3 hPa | - | - | - | - |
| 1778167802 | 15° C | 61% | 1010.4 hPa | - | - | - | - |
| 1778166901 | 15° C | 61% | 1010.3 hPa | - | - | - | - |
| 1778166002 | 15° C | 60% | 1010.2 hPa | - | - | - | - |
| 1778160602 | 17.78° C | 53% | 1010 hPa | - | - | - | - |
| 1778159701 | 17.22° C | 52% | 1010 hPa | - | - | - | - |
| 1778158801 | 17.22° C | 48% | 1009.9 hPa | - | - | - | - |
| 1778157900 | 17.22° C | 56% | 1009.9 hPa | - | - | - | - |
| 1778157000 | 17.22° C | 53% | 1010 hPa | - | - | - | - |
| 1778156102 | 17.22° C | 60% | 1009.9 hPa | - | - | - | - |
| 1778155202 | 17.22° C | 58% | 1009.9 hPa | - | - | - | - |
| 1778154302 | 17.22° C | 60% | 1009.7 hPa | - | - | - | - |
| 1778153401 | 16.11° C | 61% | 1010 hPa | - | - | - | - |
| 1778152502 | 16.11° C | 61% | 1010.1 hPa | - | - | - | - |
| 1778151602 | 16.11° C | 61% | 1010.2 hPa | - | - | - | - |
| 1778150701 | 16.11° C | 63% | 1010 hPa | - | - | - | - |
| 1778149801 | 15° C | 66% | 1010 hPa | - | - | - | - |
| 1778148900 | 15° C | 67% | 1010.1 hPa | - | - | - | - |
| 1778148002 | 15° C | 68% | 1009.8 hPa | - | - | - | - |
| 1778147102 | 13.89° C | 68% | 1009.9 hPa | - | - | - | - |
| 1778146202 | 12.78° C | 72% | 1009.8 hPa | - | - | - | - |
| 1778145302 | 12.78° C | 69% | 1009.9 hPa | - | - | - | - |
| 1778144401 | 13.89° C | 70% | 1009.9 hPa | - | - | - | - |
* Rain since midnight (hover to see other rain measurements)
** Current wind speed in m/s (hover to see current wind gust speed)